Weather Roundup
Issued by NWS

Home | Current Version | Previous Version | Graphics & Text | Print | Product List | Glossary Off
Versions: 1 2 3 4 5 6 7 8 9 10 11 12 13 14 15 16 17 18 19 20 21 22 23 24 25 26 27 28 29 30 31 32 33 34 35 36 37 38 39 40 41 42 43 44 45 46 47 48 49 50

566
NZUS93 KARX 281659
HRRWXR

CURRENT HOURLY OBSERVATIONS ACROSS
MUCH OF THE UPPER MISSISSIPPI VALLEY
NATIONAL WEATHER SERVICE LA CROSSE WI
1200 PM CDT THU APR 28 2016


...SOUTHEAST MINNESOTA...


CITY           SKY/WX    TMP DP  RH WIND       PRES   REMARKS
ROCHESTER      CLOUDY    41  35  79 NE14      29.92R
ROCHESTER/MAYO CLOUDY    40  32  72 NE8G18    29.93R WCI  35
WINONA         CLOUDY    43  32  65 E9G16     29.96R
AUSTIN         CLOUDY    41  36  81 E10G16    29.90R
ALBERT LEA     NOT AVBL
DODGE CENTER   CLOUDY    39  36  87 E15       29.92R WCI  31
PRESTON        CLOUDY    41  33  72 E9        29.91R
OWATONNA       CLOUDY    41  34  75 NE12      29.93R
FARIBAULT      NOT AVBL
$$

...ELSEWHERE IN MINNESOTA...


CITY           SKY/WX    TMP DP  RH WIND       PRES   REMARKS
MINNEAPOLIS    CLOUDY    39  34  82 NE14      30.00R WCI  31
INTNL FALLS    MOSUNNY   48  21  34 NE10G17   30.15S
DULUTH         PTSUNNY   46  24  42 E18G25    30.08R
RED WING       CLOUDY    41  32  70 E12G17    29.97R
REDWOOD FALLS  CLOUDY    38  34  85 NE8       29.98R WCI  32
MANKATO        CLOUDY    39  34  81 NE15      29.95R WCI  31
WORTHINGTON    CLOUDY    39  35  86 NE14      29.94R WCI  31
FAIRMONT       CLOUDY    41  28  60 NE10      29.92R
$$

...SOUTHWEST WISCONSIN...


CITY           SKY/WX    TMP DP  RH WIND       PRES   REMARKS
LA CROSSE      CLOUDY    45  34  65 E8        29.94R
PRAIRIE DU CHI CLOUDY    46  39  78 E8        29.89R
BOSCOBEL       CLOUDY    46  39  76 E7        29.92R
LONE ROCK      CLOUDY    44  39  82 E12       29.93R
PLATTEVILLE    CLOUDY    44  41  91 E15       29.88R
FORT MC COY    LGT RAIN  41  35  80 E13G18    29.95S
MAUSTON-NEW LI LGT RAIN  40  37  89 NE8       29.95S WCI  35
VIROQUA        CLOUDY    41  36  82 E16       29.91R
WIS DELLS      LGT RAIN  39  37  93 E14G20    29.93S WCI  31
$$

...ELSEWHERE IN WISCONSIN...


CITY           SKY/WX    TMP DP  RH WIND       PRES   REMARKS
MILWAUKEE      CLOUDY    40  36  86 E18       29.96R WCI  31
MADISON        CLOUDY    42  38  85 E12       29.93R
GREEN BAY      LGT RAIN  42  30  62 E8        30.05R
EAU CLAIRE     NOT AVBL
BLACK RVR FLS  DRIZZLE   41  32  69 E15       29.97R
MEDFORD        CLOUDY    44  21  39 E8        29.99S
WAUSAU         CLOUDY    46  22  38 SE15      30.00R
WIS RAPIDS     LGT RAIN  40  37  89 E14       30.01S WCI  32
MARSHFIELD     LGT RAIN  40  34  79 E12       29.99S WCI  33
RICE LAKE      CLOUDY    46  22  38 E8        30.02S
$$

...NORTHEAST IOWA...


CITY           SKY/WX    TMP DP  RH WIND       PRES   REMARKS
WATERLOO       CLOUDY    48  45  89 E12       29.85R
DUBUQUE        CLOUDY    46  43  89 E12       29.87R
DECORAH        CLOUDY    43  41  93 E14       29.87R
MASON CITY     LGT RAIN  43  41  93 E9        29.90R FOG
CHARLES CITY   CLOUDY    45  45 100 E10       29.87R
OELWEIN        CLOUDY    46  46 100 E13G18    29.86R
$$

...ELSEWHERE IN IOWA...


CITY           SKY/WX    TMP DP  RH WIND       PRES   REMARKS
DES MOINES     CLOUDY    54  44  69 W8        29.85R
IOWA CITY      LGT RAIN  52  50  93 E6        29.84R FOG
FORT DODGE     CLOUDY    46  43  87 E3        29.87R
MARSHALLTOWN   CLOUDY    50  47  89 E10       29.84R
CEDAR RAPIDS   LGT RAIN  49  49 100 E8        29.83R FOG
$$

...NORTHERN ILLINOIS...


CITY           SKY/WX    TMP DP  RH WIND       PRES   REMARKS
CHICAGO-OHARE  CLOUDY    45  41  86 NE13      29.89S
CHICAGO-MIDWAY CLOUDY    48  43  82 NE12      29.88S
MOLINE         CLOUDY    52  48  86 E10       29.85S FOG
ROCKFORD       CLOUDY    47  40  76 NE10      29.91S
PEORIA         CLOUDY    59  51  75 E7        29.84S
$$

NOTE: "FAIR" INDICATES FEW OR NO CLOUDS BELOW 12,000 FEET WITH NO
SIGNIFICANT WEATHER AND/OR OBSTRUCTIONS TO VISIBILITY. WIND
SPEEDS ARE IN MILES-PER-HOUR.




USA.gov is the U.S. government's official web portal to all federal, state and local government web resources and services.